Regional Weather Roundup
Issued by NWS Northern Indiana

Home | Current Version | Previous Version | Graphics & Text | Print | Product List | Glossary On
Versions: 1 2 3 4 5 6 7 8 9 10 11 12 13 14 15 16 17 18 19 20 21 22 23 24 25 26 27 28 29 30 31 32 33 34 35 36 37 38 39 40 41 42 43 44 45 46 47 48 49 50
000
ASUS43 KIWX 060700
RWRIWX

KIWX WEATHER ROUNDUP
NATIONAL WEATHER SERVICE NORTHERN INDIANA
300 AM EDT WED MAY 06 2015

NOTE: "FAIR" INDICATES FEW OR NO CLOUDS BELOW 12,000 FEET WITH NO
SIGNIFICANT WEATHER AND/OR OBSTRUCTIONS TO VISIBILITY.

* THESE STATIONS ARE NOT UNDER NWS QUALITY CONTROL. THEY ALSO MAY NOT
  REPORT WEATHER SUCH AS PRECIPITATION OR FOG.

INZ001>027-060800-
NORTHERN INDIANA

CITY           SKY/WX    TMP DP  RH WIND       PRES   REMARKS
SOUTH BEND     CLOUDY    56  54  93 MISG      30.21F FOG
GOSHEN         CLOUDY    54  53  97 E7        30.21F FOG
ANGOLA*        CLOUDY    52  39  62 E8        30.22F VSB 1
FORT WAYNE     CLOUDY    53  51  93 E10       30.22F FOG

$$
INZ028>050-060800-
CENTRAL INDIANA

CITY           SKY/WX    TMP DP  RH WIND       PRES   REMARKS
LAFAYETTE      CLEAR     60  59  96 E5        30.16F FOG
KOKOMO*        CLEAR     55  54  94 E7        30.19F
MUNCIE*        CLEAR     55  53  93 E6        30.20F FOG
INDIANAPOLIS   MOCLDY    65  53  65 S3        30.17S

$$
MIZ043>046-050>051-056>058-064>065-071>073-077>080-060800-
SOUTHWEST LOWER MICHIGAN

CITY           SKY/WX    TMP DP  RH WIND       PRES   REMARKS
BATTLE CREEK   CLOUDY    52  50  93 E6        30.23F FOG
BENTON HARBOR  CLOUDY    52  51  97 E9        30.20F FOG
COLDWATER*     CLOUDY    51  51  99 SE6       30.22F FOG
HILLSDALE*     FOG       52  52 100 SE7       30.23F VSB 1
HOLLAND        CLOUDY    53  50  89 E6        30.23F
GRAND RAPIDS   CLOUDY    53  49  86 E8        30.24F
KALAMAZOO      CLOUDY    52  49  89 E5        30.22F FOG
STURGIS*       CLOUDY    52  52 100 SE6       30.21F FOG
THREE RIVERS*  CLOUDY    53  51  94 CALM      30.22F FOG

$$
OHZ001>008-015>018-024>025-060800-
NORTHWEST OHIO

CITY           SKY/WX    TMP DP  RH WIND       PRES   REMARKS
DEFIANCE       CLOUDY    53  51  93 E7        30.23F FOG
FINDLAY        CLOUDY    54  52  93 N7        30.22S FOG
TOLEDO EXPRESS CLOUDY    51  50  96 E6        30.23F FOG
TOLEDO METCALF CLOUDY    51  49  92 NE8       30.24F FOG
LIMA           FOG       54  54 100 NE6       30.22F VSB 1/4

$$
AND FOR LAKE MICHIGAN COASTAL AND OPEN LAKE BUOY OBSERVATIONS

STATION/POSITION TEMP    WIND        PRES    VSBY  WAVE
                 AIR SEA DIR/SP/G                  HT/PER
                 (F)     (DEG/KT/KT) (MB)    (MI)  (FT/S)
CALUMET HARBOR    45                   N/A
MICHIGAN CITY     55      90/  7/  9   N/A
BURNS HARBOR      52        CALM     1022.7F
SAINT JOSEPH      54      70/  1/  6 1023.4S
4 MI NW BRIDGMAN  53 49  150/  4/  6   N/A           1
MICHIGAN CITY     53 50  100/  4/  6   N/A           1/ 3

$$
&&



USA.gov is the U.S. government's official web portal to all federal, state and local government web resources and services.